GFSSE_850_thetae_159.txt.gz
Theta_e
334 335 336 334 332 334 334 330 330 328 324 324 317 315 319 322 323 324 328 329 328 328 328 326 326 325 324 323 326 327 320 323 330 332 329 329 331 330 330 328 326 324 320
334 335 335 334 332 335 334 331 329 327 325 323 321 314 318 319 318 315 322 327 323 326 326 326 327 324 323 321 320 320 324 330 331 331 330 330 330 328 327 324 321 316 310
334 334 334 334 334 335 333 331 329 328 328 322 319 316 321 319 317 313 324 326 326 323 323 325 326 326 325 325 319 320 326 327 328 328 327 327 326 324 321 317 313 311 308
334 333 335 334 335 334 332 330 330 330 329 326 318 320 321 317 316 325 322 323 323 320 323 326 322 325 323 324 324 324 321 325 326 325 325 324 324 320 315 314 312 309 305
334 333 334 334 334 333 332 331 331 330 330 328 320 327 324 323 315 314 319 320 320 321 323 321 323 325 324 324 325 324 324 322 322 323 318 318 317 318 316 313 308 304 304
334 334 333 334 334 333 331 330 331 331 332 329 322 331 328 324 317 314 317 323 320 322 321 321 324 324 318 320 325 325 325 323 325 325 323 323 319 316 313 309 304 302 306
332 333 333 333 334 332 331 329 329 329 330 328 324 329 331 327 322 316 316 317 316 317 314 315 315 316 317 321 324 324 323 323 323 323 322 322 317 314 312 307 303 303 315
335 333 333 333 333 332 331 330 330 329 329 325 325 327 330 329 324 325 318 318 313 310 310 310 311 313 315 316 320 323 322 321 321 320 320 320 319 316 313 310 305 303 308
334 334 333 332 332 332 331 327 328 328 330 327 324 328 325 328 326 326 324 320 313 311 310 310 310 311 312 312 313 315 321 320 320 319 317 315 316 315 313 312 309 303 304
333 333 333 332 332 332 332 327 324 326 330 329 327 323 323 325 328 327 324 321 315 311 310 310 310 310 311 312 313 313 314 314 316 315 315 315 314 314 313 313 312 308 302
331 330 331 332 332 331 331 329 325 322 326 329 328 322 318 323 325 327 324 322 317 313 311 311 310 310 310 311 312 313 313 313 313 314 314 314 313 313 313 312 311 312 305
329 329 330 330 331 333 332 332 327 324 322 324 327 326 321 316 319 322 324 322 320 314 312 311 311 311 310 310 311 312 312 313 313 313 314 314 313 316 312 311 311 311 309
329 330 330 331 332 332 332 332 331 327 324 323 323 324 325 321 316 317 318 320 320 319 314 312 311 311 311 311 311 311 311 312 312 313 314 314 313 317 314 311 311 311 311
328 329 329 330 331 332 333 333 331 332 330 326 324 324 324 324 321 316 314 315 316 318 317 314 312 312 312 311 311 311 311 311 312 312 313 314 314 314 314 312 312 311 312
323 325 326 329 330 330 332 332 332 331 331 330 328 325 325 325 324 322 318 315 314 316 316 316 314 313 312 312 312 311 311 311 312 312 313 314 315 315 314 319 316 312 312
321 323 324 324 326 329 328 330 331 332 332 331 330 328 327 326 326 324 322 319 316 314 315 316 316 315 314 313 313 312 312 312 312 312 313 314 315 315 316 315 319 319 315
322 321 321 321 323 325 327 327 328 329 332 332 332 331 329 329 327 326 324 322 318 316 314 314 315 316 316 315 313 313 313 312 312 312 313 314 315 315 316 316 315 317 319
319 319 321 322 321 322 324 324 325 325 327 330 331 331 331 330 329 327 326 325 323 319 316 315 314 314 315 315 315 314 313 313 313 313 313 313 314 315 316 317 317 315 315
319 320 320 321 322 322 322 321 321 323 325 326 328 329 330 331 331 329 328 328 327 325 321 318 314 314 315 315 315 315 314 314 314 314 314 314 314 315 316 317 317 317 315
316 316 318 320 321 321 321 321 322 321 320 323 324 325 326 329 331 332 331 328 328 328 326 322 319 316 315 316 316 315 314 314 314 314 314 314 314 315 315 316 318 318 317
315 315 316 316 317 319 319 319 320 320 322 322 321 322 324 327 329 331 331 330 329 329 328 327 323 321 319 317 318 316 315 313 313 313 314 314 313 313 314 315 317 318 318
315 316 316 316 317 317 316 317 319 320 320 322 322 320 321 322 324 328 330 331 331 330 328 328 327 324 322 321 320 320 319 315 311 312 312 312 312 312 312 313 315 316 317
316 316 316 317 316 316 317 318 318 319 321 321 321 321 320 321 323 323 326 329 330 330 330 329 328 328 325 324 323 321 319 317 314 314 313 313 312 312 312 312 312 314 316
315 316 316 316 317 317 317 317 316 317 319 320 322 323 323 323 323 324 326 327 329 329 330 329 329 328 328 327 325 324 323 321 317 316 315 314 315 313 313 313 313 313 314
313 314 315 316 317 317 317 317 317 318 320 322 323 325 325 325 325 326 327 327 328 329 329 329 328 328 327 328 327 326 325 324 322 320 318 317 315 313 312 312 313 314 315
312 312 313 313 316 317 318 319 320 326 325 325 325 326 326 327 327 327 327 328 328 328 328 328 328 328 328 327 327 327 326 324 323 322 320 320 317 316 314 312 312 311 313

GFSSE_850_thetae_162.txt.gz
Theta_e
335 336 336 333 332 334 331 330 330 326 324 320 329 326 326 325 324 327 329 328 328 328 325 327 325 322 326 327 327 320 326 333 331 330 331 332 331 330 328 325 322 317 310
335 336 336 333 333 336 331 329 328 327 325 323 320 324 321 322 321 324 322 321 327 325 328 320 319 326 319 323 324 322 329 332 331 330 330 330 328 326 323 320 315 310 308
335 336 335 334 334 336 333 330 329 329 328 322 320 330 327 321 318 325 323 321 327 326 327 318 318 325 325 318 319 327 328 329 329 328 328 328 326 323 320 314 311 309 306
334 334 337 334 335 335 333 331 331 330 329 326 320 328 329 318 320 326 323 326 323 324 322 322 321 324 325 324 319 323 326 327 327 326 326 324 325 321 314 313 311 307 309
333 333 334 334 335 334 332 331 332 332 331 328 329 328 325 323 323 327 323 327 324 327 326 325 325 324 323 322 323 323 321 323 323 323 322 320 318 315 315 311 308 304 314
334 333 333 334 334 333 331 330 330 330 332 330 323 330 329 326 320 324 322 324 324 322 319 325 325 323 322 324 325 326 325 322 324 326 323 319 319 314 312 308 304 303 310
333 333 333 333 334 333 331 330 329 329 330 330 325 331 329 327 324 325 325 324 321 316 322 322 319 316 319 324 326 325 324 323 324 323 321 320 316 313 312 308 304 306 312
333 333 333 332 333 333 332 330 329 328 329 329 325 327 329 328 326 324 325 325 320 319 314 313 314 317 317 323 324 324 322 320 321 323 322 322 315 314 312 311 306 305 307
335 333 332 332 333 333 332 331 328 328 329 330 328 325 327 328 327 326 325 324 320 319 313 311 313 316 317 316 317 319 320 320 323 323 321 321 316 314 313 312 310 305 305
333 333 333 333 332 332 332 332 328 326 327 329 328 326 318 318 326 326 325 323 323 323 313 311 312 314 315 314 315 315 314 316 322 321 320 321 314 313 313 313 312 310 304
330 330 331 332 332 332 332 331 330 327 325 327 328 327 323 315 317 325 326 325 325 323 319 312 311 311 311 313 314 314 314 321 320 321 320 315 313 312 313 312 311 312 308
331 331 331 330 331 332 332 332 332 330 326 324 327 328 326 321 315 316 318 319 323 324 324 319 312 312 311 312 313 314 315 320 319 320 318 314 313 313 313 311 311 311 311
333 330 331 331 332 332 332 333 333 332 331 327 324 325 327 326 322 317 314 315 316 319 320 322 317 312 312 312 312 312 314 313 318 318 313 314 314 314 319 313 311 311 311
323 324 327 330 331 332 333 333 333 333 331 331 329 326 324 326 327 323 319 315 313 314 318 322 321 315 312 312 312 312 312 312 314 313 313 313 315 314 319 319 313 311 311
320 320 322 325 327 327 330 332 332 332 332 332 331 330 328 325 325 326 325 321 318 315 314 315 317 317 314 313 312 312 312 312 312 312 313 313 314 315 315 321 320 316 313
320 320 320 321 324 324 324 325 329 329 329 331 332 332 331 329 327 327 326 326 324 321 317 314 315 316 316 315 313 313 313 313 313 313 313 313 314 315 315 315 320 320 319
317 319 321 321 321 321 321 322 324 325 327 328 328 331 332 332 330 329 328 327 326 325 322 318 315 314 317 316 315 315 314 313 313 313 313 313 314 314 315 316 316 319 320
317 318 319 319 320 321 322 321 321 322 324 325 327 327 329 331 332 331 330 329 327 326 325 323 320 317 315 316 318 317 314 314 313 313 313 313 313 313 314 315 316 316 317
316 317 318 320 319 319 321 321 322 322 322 321 322 324 325 327 330 332 332 331 330 328 327 327 325 321 320 318 316 316 315 315 314 314 313 313 313 313 313 314 315 316 317
315 316 316 317 319 320 320 320 321 321 321 321 322 321 320 322 327 330 331 331 332 331 329 328 328 327 324 320 318 317 317 317 316 313 313 314 313 313 313 313 314 315 317
315 315 316 315 315 316 317 317 318 319 319 319 319 320 321 322 322 324 328 330 331 331 331 330 329 329 328 326 322 320 319 319 316 314 314 312 312 312 313 313 313 314 315
315 316 316 316 316 316 316 317 317 317 317 319 320 320 321 322 323 323 325 327 330 331 331 332 331 330 329 328 327 322 321 322 321 320 316 314 312 312 312 312 313 313 313
315 316 316 316 316 316 316 316 316 317 318 319 321 320 321 323 324 325 326 327 327 328 329 330 331 331 330 329 328 325 322 323 322 321 318 315 314 313 312 312 312 312 312
314 315 316 317 317 316 316 315 316 321 324 325 326 326 325 325 325 326 327 327 327 327 327 328 328 329 329 329 326 327 327 326 324 324 323 321 318 317 315 313 312 312 313
312 313 314 316 317 318 318 317 317 322 324 326 326 325 325 326 326 326 326 327 327 328 327 327 327 327 328 327 327 326 327 326 325 322 323 324 323 325 324 322 317 313 312
311 311 312 312 313 315 317 319 320 320 322 323 323 325 325 326 325 326 326 326 326 325 326 326 326 326 327 327 326 326 325 325 325 323 322 322 324 324 323 324 325 326 324

GFSSE_850_thetae_165.txt.gz
Theta_e
340 336 335 333 334 333 330 330 328 325 323 328 329 329 327 325 325 331 330 329 329 328 327 327 326 327 328 328 322 328 333 329 331 332 332 331 330 330 326 321 317 311 307
340 337 334 333 334 334 331 329 328 327 326 323 330 328 326 324 323 329 328 328 328 328 325 322 324 322 324 325 320 327 332 331 330 330 330 329 326 324 322 317 312 309 306
340 336 335 333 334 336 332 330 329 330 328 322 326 330 328 320 320 324 320 328 327 327 327 325 326 324 319 322 323 329 330 330 329 328 328 328 326 323 319 313 310 308 305
340 337 337 334 335 335 332 330 331 330 329 326 326 330 329 320 324 328 323 326 327 327 326 322 324 325 320 319 322 327 327 328 327 326 327 327 325 321 315 313 310 306 307
340 341 338 334 335 334 332 330 331 330 331 328 329 327 326 323 328 327 327 327 325 326 325 325 323 324 324 324 322 322 324 326 324 326 326 323 325 315 314 311 309 305 315
340 340 334 334 334 333 332 330 330 329 331 330 326 329 328 326 320 326 325 326 327 327 326 325 324 324 323 325 326 325 322 321 323 327 326 320 318 314 311 308 306 304 307
340 341 333 333 334 333 332 330 329 329 329 330 323 332 329 328 326 322 325 326 326 325 325 326 324 320 322 324 326 326 325 322 326 326 324 324 317 312 311 309 305 305 307
339 341 341 333 334 333 332 331 330 329 328 329 326 326 329 328 326 324 324 325 324 323 323 324 321 318 321 324 325 325 323 322 322 324 324 324 318 313 312 311 308 305 306
339 340 340 338 333 333 333 332 330 327 327 329 328 326 327 328 324 320 325 324 322 318 318 313 315 317 318 319 324 324 322 320 324 324 323 323 321 313 313 312 311 307 305
338 338 339 342 341 333 332 332 332 329 326 327 329 328 326 322 323 324 320 317 319 320 315 312 311 314 316 316 317 317 317 318 318 324 323 323 318 313 313 313 312 311 307
337 333 337 338 339 340 340 338 332 331 328 325 325 328 327 324 325 321 323 323 320 319 318 314 311 311 311 313 314 315 316 316 323 323 323 322 317 313 313 312 312 311 311
338 333 330 332 336 335 337 336 333 332 331 328 325 325 326 326 326 328 325 320 320 322 322 319 313 311 311 311 316 314 313 318 322 322 322 322 315 314 316 313 311 311 311
335 337 330 330 332 335 335 334 333 333 333 331 330 326 326 327 327 324 321 322 320 319 320 321 318 314 312 311 316 320 321 321 322 322 322 319 313 314 317 320 315 311 310
331 333 335 337 335 329 333 335 332 333 333 332 331 330 328 326 326 326 326 324 325 323 323 323 323 323 321 316 312 312 315 317 319 320 318 313 313 314 314 320 320 315 312
324 326 328 332 335 335 326 329 337 338 336 332 333 331 331 330 328 326 326 326 325 324 323 323 323 323 323 321 317 314 312 312 312 314 314 315 312 312 314 315 321 320 319
321 321 323 325 330 332 335 325 324 334 333 336 331 331 331 331 331 330 327 327 326 326 324 323 323 323 323 322 322 319 317 314 313 313 314 316 312 312 313 314 315 319 320
319 319 318 319 322 325 323 327 333 329 330 327 332 330 329 330 331 332 331 329 328 327 326 325 324 322 321 322 322 322 319 317 314 314 313 313 313 312 312 313 314 315 319
318 316 316 317 318 319 319 322 328 331 333 327 324 326 327 328 329 331 332 331 330 329 328 327 326 325 323 320 321 321 321 320 316 315 314 314 314 313 312 312 312 314 315
316 316 317 317 318 319 320 321 322 323 326 331 327 329 325 323 326 329 330 331 331 331 330 329 327 326 326 325 323 321 320 320 319 317 313 313 313 313 313 313 312 312 313
315 315 315 316 316 316 316 318 320 322 322 323 325 321 321 323 323 327 328 330 332 331 331 330 330 328 327 326 325 324 322 321 319 318 316 315 313 312 312 312 313 313 312
314 314 315 315 315 315 315 318 321 325 327 327 324 321 320 323 322 323 327 332 332 330 332 331 330 329 329 328 326 326 325 324 323 323 322 320 319 317 315 313 312 312 312
314 315 316 316 316 316 315 316 322 325 326 327 328 329 328 323 324 325 325 327 330 328 329 331 330 329 328 328 327 327 323 325 326 326 325 323 323 321 316 314 313 312 311
314 315 315 316 316 317 316 316 316 319 322 325 327 328 328 328 327 328 326 327 330 326 327 330 329 327 328 327 327 327 324 325 326 326 324 323 323 324 323 321 317 314 312
314 315 315 316 317 317 317 318 319 323 325 325 326 327 327 327 327 326 328 327 327 327 326 327 329 327 326 326 326 326 326 326 326 326 326 325 324 322 323 323 321 320 317
312 313 314 315 317 318 319 319 319 323 325 325 325 325 326 327 326 327 327 326 326 325 325 325 325 326 325 326 326 326 325 325 325 323 324 324 326 325 325 325 324 324 323
311 311 311 312 313 313 314 316 318 320 321 322 323 323 324 324 325 326 324 325 326 326 325 324 323 324 325 324 324 325 325 324 324 324 323 323 323 323 324 324 324 324 324

GFSSE_850_thetae_168.txt.gz
Theta_e
339 335 334 334 333 330 329 328 326 325 328 330 329 327 325 323 331 330 330 328 327 328 328 328 328 329 328 322 329 330 330 331 332 332 330 330 329 328 323 320 313 308 306
339 335 333 333 335 331 329 327 328 327 324 326 330 326 325 323 329 329 328 327 326 326 322 322 322 325 325 323 328 331 330 330 330 330 329 327 324 322 319 314 310 308 312
338 335 333 334 335 332 330 329 329 329 327 320 329 328 323 319 324 327 324 324 328 326 322 328 325 319 323 322 328 330 330 329 328 328 328 326 324 323 318 312 310 307 315
337 336 334 333 336 334 331 330 330 330 329 326 328 327 320 319 327 328 324 326 325 326 325 323 325 321 319 320 326 327 328 327 326 326 326 326 323 319 316 312 310 306 315
340 339 337 334 335 334 331 330 330 330 331 327 327 323 324 321 327 323 324 325 324 325 325 325 324 324 324 322 321 322 324 325 324 326 325 323 320 315 313 310 308 307 315
340 339 335 334 334 333 331 330 329 329 331 328 327 328 324 324 320 320 314 323 325 325 325 325 325 324 323 324 326 325 322 321 325 326 324 323 320 313 311 308 306 306 309
338 338 334 333 333 333 331 330 329 329 329 329 325 331 329 326 321 318 314 314 317 321 323 324 323 319 323 323 326 325 324 322 324 325 323 323 322 313 311 310 305 306 308
339 338 337 333 333 333 332 331 329 328 328 329 327 326 331 328 327 323 318 313 312 310 313 312 313 315 320 323 325 324 323 321 323 323 323 323 322 315 312 311 309 306 307
338 338 339 336 333 333 333 332 331 329 325 327 329 327 329 328 328 326 323 322 319 318 311 310 310 311 313 316 319 321 321 316 323 324 323 322 321 319 313 312 312 310 306
337 337 337 337 340 334 333 333 332 331 327 324 325 327 326 324 322 322 321 320 318 318 318 313 311 311 312 312 312 313 312 312 314 322 323 322 322 317 312 311 312 312 310
336 334 337 334 340 341 337 334 333 331 330 327 324 323 325 326 323 319 318 321 320 318 318 318 314 311 310 311 311 311 312 312 315 323 322 322 320 316 313 312 311 310 311
337 334 332 335 335 332 334 336 337 330 330 330 329 325 324 325 325 324 323 318 317 317 318 318 317 313 311 311 311 311 314 312 315 322 321 322 320 316 313 313 313 311 310
336 337 335 328 331 336 336 333 336 333 331 332 330 329 328 326 325 325 325 323 321 320 316 316 316 316 314 312 311 314 317 316 317 320 320 320 318 313 313 314 318 317 312
331 332 333 334 329 328 331 335 332 332 333 334 333 332 330 329 327 326 325 324 324 323 322 318 317 317 315 316 316 313 313 314 315 315 316 316 313 312 312 313 323 320 316
323 324 325 327 331 332 331 329 331 334 334 335 336 336 334 330 330 329 328 326 325 325 325 324 322 319 317 318 319 317 314 313 312 312 312 312 312 311 311 312 314 321 321
320 320 320 322 325 328 331 327 327 327 332 334 336 338 338 333 330 330 330 329 328 326 326 325 325 323 321 319 316 315 313 314 314 313 312 312 312 312 312 311 312 314 321
319 319 317 316 318 321 326 327 325 324 327 329 329 337 339 338 333 329 331 331 330 330 328 327 326 325 325 323 321 318 317 315 313 313 313 314 313 313 312 312 312 311 313
318 317 315 316 317 318 318 321 326 327 327 325 324 324 330 333 337 334 330 331 331 331 330 329 328 327 326 325 325 324 321 319 318 315 314 314 314 313 313 313 312 312 312
318 315 314 315 316 317 318 319 321 324 325 327 327 327 326 326 328 334 335 334 333 331 331 330 329 329 328 327 326 326 325 324 323 322 320 318 316 315 313 312 312 312 313
316 314 314 314 315 315 316 316 316 320 325 326 328 332 332 331 335 334 332 332 329 330 329 329 329 328 328 329 327 327 325 324 325 325 324 324 324 324 322 320 317 314 312
314 314 314 315 315 315 315 315 317 320 322 325 327 329 328 327 325 332 331 330 328 328 328 328 329 329 328 328 327 326 326 326 325 327 327 327 326 325 324 323 322 319 316
313 314 314 315 316 316 316 316 316 321 325 326 327 328 329 329 329 330 331 330 327 326 326 327 327 328 327 328 327 327 326 325 326 326 327 327 326 325 324 323 322 319 317
313 314 314 314 314 315 316 316 316 316 319 323 325 326 327 327 327 326 326 326 326 325 325 324 325 326 327 326 326 327 326 324 325 326 326 326 325 324 325 325 323 320 320
313 313 314 315 315 316 317 317 318 319 323 325 325 326 326 325 325 325 327 325 325 325 325 325 325 324 325 325 324 325 325 325 325 325 325 325 326 325 323 323 324 325 324
312 313 314 314 315 316 317 318 318 322 323 325 323 324 324 324 324 325 326 326 325 326 325 324 324 324 323 324 324 324 324 324 324 324 323 323 324 324 324 324 324 324 323
312 312 312 313 313 313 313 314 314 315 315 316 317 318 318 321 322 323 324 323 323 323 324 324 325 325 324 324 324 324 324 324 324 323 323 323 323 323 322 322 322 323 322

GFSSE_850_thetae_171.txt.gz
Theta_e
337 333 332 331 328 327 326 327 326 325 329 328 324 322 320 330 328 329 327 326 327 327 328 328 328 328 324 330 328 331 331 332 331 329 328 326 325 323 319 312 309 308 313
336 334 332 333 329 328 327 329 328 325 321 326 323 322 320 322 328 328 327 326 325 325 327 325 324 326 324 328 330 329 330 329 328 329 327 325 324 321 316 312 309 315 319
337 333 333 335 332 330 329 329 329 328 322 326 328 314 315 315 319 322 324 324 325 322 326 325 323 321 323 327 330 330 328 326 327 326 326 322 322 318 316 312 310 313 315
335 334 333 335 335 331 330 330 329 329 326 327 326 321 317 318 314 312 315 317 325 325 321 324 324 320 320 325 327 327 327 325 326 326 326 324 320 315 313 314 310 316 319
336 335 333 334 335 332 330 330 329 330 327 328 327 325 323 320 316 312 312 313 318 320 321 325 323 323 321 321 322 322 324 324 325 324 324 322 320 316 311 309 308 311 312
338 338 335 333 334 332 330 329 329 328 330 325 329 328 326 324 321 318 314 312 314 320 317 321 319 321 323 324 325 323 320 322 323 324 323 320 319 313 310 308 306 308 308
337 337 334 333 333 331 330 328 327 328 328 329 329 330 329 327 325 322 319 313 314 314 318 319 312 315 320 322 325 324 322 320 321 323 322 318 318 315 311 310 308 306 308
337 337 334 333 333 332 331 331 328 325 326 328 328 326 329 327 324 318 315 312 311 311 313 311 310 313 318 317 324 323 317 317 321 322 322 321 318 318 313 311 310 308 306
337 337 338 333 332 332 332 331 331 329 324 324 327 326 327 325 322 322 319 315 314 313 311 310 310 310 312 315 316 317 317 313 319 322 323 322 318 318 314 311 311 310 308
337 333 333 332 329 330 331 332 331 331 330 325 323 325 326 324 322 319 317 315 315 314 314 312 310 310 311 312 312 312 311 311 314 320 321 321 319 318 315 312 311 310 310
334 334 333 331 328 327 329 330 328 329 330 329 327 323 323 324 325 322 320 317 314 313 313 312 312 311 310 310 310 310 310 310 311 316 319 321 319 317 315 312 312 311 310
333 331 330 330 330 332 329 331 333 330 329 329 328 328 325 324 324 323 323 323 321 318 315 312 311 312 311 311 310 310 310 311 311 313 316 319 317 316 315 311 312 313 312
336 335 334 333 329 328 331 333 330 332 331 329 329 328 327 327 326 325 325 324 323 323 322 320 314 313 312 312 312 311 311 311 313 314 315 317 315 315 314 311 311 313 317
332 331 329 326 326 327 327 329 331 330 332 333 331 331 328 329 329 328 327 326 325 324 324 324 323 321 318 315 313 313 313 312 311 312 313 314 314 314 312 311 311 311 313
323 324 327 328 326 326 325 326 330 329 328 328 336 336 336 332 328 330 329 328 327 326 325 325 325 324 323 322 320 317 315 315 314 313 312 312 312 313 312 312 312 314 317
321 321 321 321 323 326 327 325 322 327 328 328 328 329 335 336 333 327 329 329 330 329 328 327 326 326 325 324 323 322 320 319 317 315 315 314 313 313 312 312 312 312 315
319 319 318 317 316 317 321 323 325 323 323 324 326 331 329 331 336 334 332 327 329 330 330 329 328 327 326 325 325 324 323 322 321 320 319 317 315 315 314 313 313 313 312
318 318 317 315 314 316 316 318 320 322 324 325 326 327 329 330 331 334 332 332 332 332 330 330 330 329 328 327 327 326 326 325 325 324 323 322 321 319 317 316 314 314 313
317 317 317 315 314 314 315 317 318 319 322 324 327 329 330 332 331 331 331 329 329 329 328 328 328 328 328 327 326 327 327 326 327 327 326 326 326 325 324 324 321 319 317
317 317 317 314 314 314 314 315 316 316 318 323 325 327 328 332 330 329 329 329 329 329 328 328 327 327 327 327 328 328 327 326 326 326 326 326 325 326 327 326 325 324 323
317 316 316 314 314 315 315 315 315 316 318 323 326 327 328 329 329 327 324 327 327 327 327 327 327 328 328 327 328 327 326 326 325 325 325 325 325 326 327 326 325 324 323
316 315 313 314 314 315 315 316 315 316 322 325 327 328 329 327 327 326 325 325 325 325 325 325 325 326 327 326 328 327 327 326 324 324 324 324 324 325 326 325 324 325 325
315 313 313 313 314 314 314 315 316 315 319 322 324 324 325 326 326 324 324 323 324 324 324 324 324 324 324 325 325 326 326 324 324 324 323 324 324 324 324 325 325 324 324
313 313 313 313 314 314 315 316 317 317 321 324 326 325 324 324 324 323 323 324 327 325 325 324 324 324 324 324 324 324 324 324 324 324 323 322 322 322 323 323 323 324 324
313 313 313 313 314 314 315 316 317 318 319 322 324 325 325 323 323 323 322 324 326 325 323 324 325 325 325 324 324 323 323 323 322 323 322 322 321 321 322 321 322 322 322
312 312 312 313 313 313 314 314 314 315 315 316 316 316 318 318 320 321 322 322 322 322 322 322 323 321 323 322 323 323 322 322 322 322 321 320 321 320 319 319 319 319 321

GFSSE_850_thetae_174.txt.gz
Theta_e
333 332 331 328 327 326 327 326 325 328 325 322 318 321 329 328 327 326 325 326 326 326 328 328 327 329 331 330 331 331 331 329 329 328 325 324 322 319 314 310 310 318 322
334 333 332 329 328 327 328 327 327 328 327 323 317 315 321 326 325 324 319 318 325 326 323 324 326 325 329 329 330 329 328 328 328 326 324 322 318 319 315 310 312 317 319
335 332 334 330 329 328 329 328 327 324 327 330 317 316 314 317 321 322 318 317 317 318 323 321 322 326 327 330 329 328 327 326 325 324 323 322 316 313 312 311 312 316 319
334 333 334 334 330 329 330 329 328 326 329 325 323 321 318 317 313 315 312 320 317 313 320 322 318 322 327 326 327 327 326 325 324 323 321 318 316 314 311 309 309 314 311
334 333 333 335 333 330 329 329 328 328 328 329 324 319 320 320 318 313 315 315 319 315 323 323 319 318 320 324 325 323 325 324 323 322 320 316 315 311 310 308 308 307 308
336 335 333 334 333 330 329 328 328 328 327 327 328 324 321 317 316 316 313 316 325 322 325 322 314 318 318 323 324 321 320 323 322 318 318 314 314 312 310 309 307 307 306
336 336 334 333 332 330 328 327 327 327 329 328 331 328 328 323 320 319 314 311 310 313 318 316 312 315 319 324 325 321 318 319 319 318 317 316 314 314 311 310 309 307 306
336 336 334 333 332 331 330 329 326 325 326 328 326 329 328 327 322 318 314 312 311 311 311 310 310 312 315 320 325 319 316 316 318 318 319 319 316 315 313 311 310 309 307
336 335 333 332 332 332 332 331 330 328 324 324 326 326 327 326 324 322 317 314 314 313 311 310 310 310 312 312 313 316 313 312 315 318 318 317 318 316 315 312 311 310 309
336 331 329 329 331 331 331 331 331 331 330 326 323 324 325 324 323 321 318 315 314 313 313 312 310 310 310 311 311 311 311 311 311 316 316 316 318 318 315 313 312 311 310
335 332 331 330 328 327 327 327 328 329 330 330 328 325 323 324 324 324 321 320 316 314 313 312 313 313 311 310 310 311 310 310 311 312 315 317 318 319 317 314 312 312 311
331 330 329 329 329 329 329 328 327 329 329 329 329 328 327 325 324 325 324 323 323 322 321 320 316 313 312 313 311 310 310 310 311 311 313 315 316 318 317 316 313 311 313
334 334 331 329 327 326 326 327 329 324 327 330 328 328 328 327 326 326 325 325 325 324 324 323 323 319 318 315 313 313 312 311 312 313 312 315 316 318 318 317 314 312 311
331 330 328 325 325 324 324 324 326 324 323 325 328 328 329 327 329 329 328 327 326 326 325 324 324 324 323 322 320 318 316 315 314 313 313 314 314 315 316 316 316 315 323
330 327 324 327 327 326 326 324 324 325 326 326 325 323 326 330 328 328 329 329 329 328 327 326 326 325 325 324 324 323 322 321 319 318 317 316 314 314 314 314 315 318 320
322 322 322 322 321 324 326 327 325 323 324 326 325 326 328 325 324 333 333 328 329 330 329 329 328 327 327 326 326 325 324 324 323 322 321 320 319 318 317 315 314 315 319
320 320 320 319 319 318 318 319 322 323 324 323 324 326 329 332 331 327 331 332 332 332 330 330 329 329 329 328 327 327 326 326 325 325 324 324 323 322 320 319 317 317 316
319 319 318 317 317 315 313 315 317 318 319 321 324 325 327 329 332 332 329 330 330 328 328 328 327 327 326 326 326 326 326 326 327 327 326 326 326 326 326 326 325 324 322
318 318 317 317 316 316 313 314 315 317 318 319 322 325 327 329 331 331 330 328 328 328 328 328 327 326 326 326 325 325 325 326 326 326 325 325 325 325 325 326 326 326 325
317 316 316 316 316 315 313 313 314 315 316 318 321 324 326 328 328 329 328 327 327 326 327 327 326 326 327 327 327 325 325 325 324 325 325 324 324 323 324 325 325 326 325
316 316 316 316 315 314 313 314 314 314 316 318 319 322 326 328 328 328 326 325 324 325 325 325 326 326 326 326 327 327 324 325 323 324 323 322 323 323 323 324 325 325 324
316 316 316 315 313 313 314 315 315 315 318 321 324 325 327 327 327 326 324 324 323 324 323 324 324 324 324 324 325 325 325 324 324 323 323 323 323 323 323 323 323 323 325
315 315 315 314 313 313 313 313 314 315 316 321 324 325 326 326 324 324 323 323 322 322 323 323 323 323 324 324 323 323 324 324 323 323 323 322 323 323 323 322 323 322 322
315 315 314 313 313 313 313 314 316 316 316 319 322 324 324 323 323 322 322 322 322 322 324 324 324 324 324 323 324 323 323 323 323 323 321 321 321 321 322 321 320 319 319
314 314 313 313 312 313 313 314 316 317 319 321 324 325 325 324 323 322 321 322 322 322 323 323 323 323 324 323 324 323 323 322 321 320 320 319 320 318 319 317 318 318 318
314 313 312 312 312 313 313 314 315 316 316 318 319 320 320 320 320 319 319 320 321 321 321 320 319 321 321 320 321 320 320 320 319 318 318 318 318 318 316 317 316 317 315